BREEZE-M R/B (43868 NORAD) Tracking and Keplerian Element Data

This shows tracking and keplerian element data for the satellite.

Feedback or suggestion? Click here.




ElementValue
Catalog43868
NameBREEZE-M R/B
Epoch Orbit22
Epoch Day19.3361783
Epoch Year2019
RAAN209.1972
Inclination0.134
Eccentricity0.0710226
Argument of Perigee127.8982
Mean Anonmoly19.8253
Mean Motion0.90469896
Decay Rate-1.27E-06
L11 43868U 18107B 19019.33617830 -.00000127 00000-0 00000-0 0 9998
L22 43868 0.1340 209.1972 0710226 127.8982 19.8253 0.90469896 227

Live tracking and technical data element details for BREEZE-M R/B (NORAD 43868). BREEZE-M R/B can be tracked NOW for your location showing map with azimuth and elevation plus other details from your city location.

Track the satellite on the map from your city or location and see movement details for azimuth, elevation, latitude, longitude, range, height, and movement on the map or in text.







IsCatalogInMostPopularTable: catalog: 43868, numindb: 30
Update: records affected: 1



GetName: 43868 BREEZE-M R/B

Hit Count: updated at: Thu, 23 May 2019 15:15:34 GMT